Time,TemperatureF,DewpointF,PressureIn,WindDirection,WindDirectionDegrees,WindSpeedMPH,WindSpeedGustMPH,Humidity,HourlyPrecipIn,Conditions,Clouds,dailyrainin,SoftwareType,DateUTC
2013-01-26 00:00:00,22.9,20.7,30.02,NW,309,0.9,3.5,91,0.00,OVC,,0.00,WeatherDisplay:10.37,2013-01-26 05:00:00,
2013-01-26 00:03:00,23.0,20.5,30.01,NNE,20,0.1,2.3,90,0.00,BKN,,0.00,WeatherDisplay:10.37,2013-01-26 05:03:00,
2013-01-26 00:05:00,22.9,20.4,30.02,ESE,108,0.8,4.0,90,0.00,BKN,,0.00,WeatherDisplay:10.37,2013-01-26 05:05:00,
2013-01-26 00:10:00,23.2,21.0,30.02,WSW,242,0.5,2.3,91,0.00,BKN,,0.00,WeatherDisplay:10.37,2013-01-26 05:10:00,
2013-01-26 00:13:00,23.2,20.7,30.02,WNW,289,1.0,0.0,90,0.00,BKN,,0.00,WeatherDisplay:10.37,2013-01-26 05:13:00,
2013-01-26 00:18:00,23.4,21.1,30.02,West,270,0.0,0.0,91,0.00,BKN,,0.00,WeatherDisplay:10.37,2013-01-26 05:18:00,
2013-01-26 00:24:00,23.4,20.9,30.02,West,279,1.0,3.0,90,0.00,BKN,,0.00,WeatherDisplay:10.37,2013-01-26 05:24:00,
2013-01-26 00:29:00,23.4,21.2,30.02,West,263,0.3,2.3,91,0.00,BKN,,0.00,WeatherDisplay:10.37,2013-01-26 05:29:00,
2013-01-26 00:34:00,23.5,21.3,30.02,SW,233,0.0,1.1,91,0.00,BKN,,0.00,WeatherDisplay:10.37,2013-01-26 05:34:00,
2013-01-26 00:39:00,23.6,21.4,30.02,SW,233,0.0,1.1,91,0.00,BKN,,0.00,WeatherDisplay:10.37,2013-01-26 05:39:00,
2013-01-26 00:44:00,23.9,21.7,30.02,East,96,1.1,2.0,91,0.00,BKN,,0.00,WeatherDisplay:10.37,2013-01-26 05:44:00,
2013-01-26 00:49:00,24.2,22.0,30.02,NNE,18,0.3,1.1,91,0.00,BKN,,0.00,WeatherDisplay:10.37,2013-01-26 05:49:00,
2013-01-26 00:54:00,24.4,22.2,30.02,ESE,110,0.4,2.3,91,0.00,BKN,,0.00,WeatherDisplay:10.37,2013-01-26 05:54:00,
2013-01-26 00:59:00,24.7,22.4,30.02,NNE,30,1.0,2.0,91,0.00,BKN,,0.00,WeatherDisplay:10.37,2013-01-26 05:59:00,
2013-01-26 01:04:00,24.9,22.6,30.02,ESE,110,1.8,3.0,91,0.00,BKN,,0.00,WeatherDisplay:10.37,2013-01-26 06:04:00,
2013-01-26 01:09:00,25.0,22.7,30.02,NNE,28,0.2,1.1,91,0.00,BKN,,0.00,WeatherDisplay:10.37,2013-01-26 06:09:00,
2013-01-26 01:14:00,25.0,22.5,30.02,ENE,70,0.3,3.0,90,0.00,BKN,,0.00,WeatherDisplay:10.37,2013-01-26 06:14:00,
2013-01-26 01:19:00,25.7,23.7,30.02,ESE,104,0.6,3.5,92,0.00,BKN,,0.00,WeatherDisplay:10.37,2013-01-26 06:19:00,
2013-01-26 01:24:00,26.1,23.6,30.02,SE,128,0.0,3.5,90,0.00,BKN,,0.00,WeatherDisplay:10.37,2013-01-26 06:24:00,
2013-01-26 01:29:00,26.2,23.9,30.02,ENE,63,1.0,1.1,91,0.00,BKN,,0.00,WeatherDisplay:10.37,2013-01-26 06:29:00,
2013-01-26 01:34:00,27.1,24.6,30.01,East,79,1.5,3.0,90,0.00,BKN,,0.00,WeatherDisplay:10.37,2013-01-26 06:34:00,
2013-01-26 01:39:00,26.7,23.9,30.02,NE,34,0.9,3.5,89,0.00,BKN,,0.00,WeatherDisplay:10.37,2013-01-26 06:39:00,
2013-01-26 01:44:00,26.6,24.1,30.02,East,79,0.5,1.1,90,0.00,BKN,,0.00,WeatherDisplay:10.37,2013-01-26 06:44:00,
2013-01-26 01:49:00,26.7,23.9,30.02,ESE,110,0.1,1.0,89,0.00,BKN,,0.00,WeatherDisplay:10.37,2013-01-26 06:49:00,
2013-01-26 01:54:00,27.0,24.5,30.02,South,188,0.1,1.1,90,0.00,BKN,,0.00,WeatherDisplay:10.37,2013-01-26 06:54:00,
2013-01-26 01:59:00,27.3,25.0,30.02,East,91,3.8,4.0,91,0.00,BKN,,0.00,WeatherDisplay:10.37,2013-01-26 06:59:00,
2013-01-26 02:04:00,27.8,24.4,30.03,NNE,26,0.0,3.5,87,0.00,BKN,,0.00,WeatherDisplay:10.37,2013-01-26 07:04:00,
2013-01-26 02:09:00,27.7,25.2,30.03,SW,230,0.3,3.5,90,0.00,SCT,,0.00,WeatherDisplay:10.37,2013-01-26 07:09:00,
2013-01-26 02:15:00,27.5,25.0,30.03,West,272,2.0,5.0,90,0.00,SCT,,0.00,WeatherDisplay:10.37,2013-01-26 07:15:00,
2013-01-26 02:20:00,27.7,25.4,30.03,SW,236,1.4,3.5,91,0.00,SCT,,0.00,WeatherDisplay:10.37,2013-01-26 07:20:00,
2013-01-26 02:25:00,28.5,25.9,30.03,NE,47,1.0,3.5,90,0.00,SCT,,0.00,WeatherDisplay:10.37,2013-01-26 07:25:00,
2013-01-26 02:30:00,29.1,26.0,30.03,East,82,0.7,2.3,88,0.00,SCT,,0.00,WeatherDisplay:10.37,2013-01-26 07:30:00,
2013-01-26 02:35:00,29.1,26.0,30.03,ESE,106,0.9,1.1,88,0.00,SCT,,0.00,WeatherDisplay:10.37,2013-01-26 07:35:00,
2013-01-26 02:40:00,28.9,26.3,30.04,East,80,0.3,1.1,90,0.00,SCT,,0.00,WeatherDisplay:10.37,2013-01-26 07:40:00,
2013-01-26 02:45:00,29.7,26.6,30.04,East,80,0.0,0.0,88,0.00,SCT,,0.00,WeatherDisplay:10.37,2013-01-26 07:45:00,
2013-01-26 02:50:00,30.1,26.7,30.04,WNW,302,0.0,2.3,87,0.00,SCT,,0.00,WeatherDisplay:10.37,2013-01-26 07:50:00,
2013-01-26 02:55:00,30.0,26.9,30.04,NNW,335,0.0,0.0,88,0.00,SCT,,0.00,WeatherDisplay:10.37,2013-01-26 07:55:00,
2013-01-26 03:00:00,30.1,27.0,30.04,WNW,290,0.0,1.1,88,0.00,SCT,,0.00,WeatherDisplay:10.37,2013-01-26 08:00:00,
2013-01-26 03:05:00,29.7,26.3,30.04,WSW,257,0.0,1.1,87,0.00,SCT,,0.00,WeatherDisplay:10.37,2013-01-26 08:05:00,
2013-01-26 03:10:00,29.1,26.0,30.04,WSW,239,0.6,2.3,88,0.00,SCT,,0.00,WeatherDisplay:10.37,2013-01-26 08:10:00,
2013-01-26 03:15:00,29.5,26.7,30.04,SSW,204,0.0,1.1,89,0.00,SCT,,0.00,WeatherDisplay:10.37,2013-01-26 08:15:00,
2013-01-26 03:20:00,30.1,26.7,30.04,SW,225,0.0,0.0,87,0.00,SCT,,0.00,WeatherDisplay:10.37,2013-01-26 08:20:00,
2013-01-26 03:25:00,30.2,26.8,30.04,SW,224,0.9,2.3,87,0.00,SCT,,0.00,WeatherDisplay:10.37,2013-01-26 08:25:00,
2013-01-26 03:30:00,30.8,26.8,30.04,SW,225,0.0,0.0,85,0.00,SCT,,0.00,WeatherDisplay:10.37,2013-01-26 08:30:00,
2013-01-26 03:35:00,31.2,27.2,30.04,ESE,103,0.0,0.0,85,0.00,SCT,,0.00,WeatherDisplay:10.37,2013-01-26 08:35:00,
2013-01-26 03:40:00,31.1,27.1,30.04,West,273,0.4,1.1,85,0.00,SCT,,0.00,WeatherDisplay:10.37,2013-01-26 08:40:00,
2013-01-26 03:45:00,31.7,27.1,30.04,SSE,160,0.0,3.5,83,0.00,SCT,,0.00,WeatherDisplay:10.37,2013-01-26 08:45:00,
2013-01-26 03:50:00,32.1,27.2,30.05,SW,218,0.1,1.0,82,0.00,SCT,,0.00,WeatherDisplay:10.37,2013-01-26 08:50:00,
2013-01-26 03:56:00,32.6,27.1,30.05,SW,218,1.4,4.0,80,0.00,SCT,,0.00,WeatherDisplay:10.37,2013-01-26 08:56:00,
2013-01-26 04:01:00,33.1,27.3,30.05,North,4,0.4,3.5,79,0.00,SCT,,0.00,WeatherDisplay:10.37,2013-01-26 09:01:00,
2013-01-26 04:06:00,33.1,27.3,30.05,South,190,0.0,2.3,79,0.00,BKN,,0.00,WeatherDisplay:10.37,2013-01-26 09:06:00,
2013-01-26 04:11:00,33.3,26.9,30.05,SW,236,1.5,8.0,77,0.00,BKN,,0.00,WeatherDisplay:10.37,2013-01-26 09:11:00,
2013-01-26 04:16:00,33.4,27.0,30.05,NNW,344,0.1,4.6,77,0.00,BKN,,0.00,WeatherDisplay:10.37,2013-01-26 09:16:00,
2013-01-26 04:21:00,33.3,26.9,30.05,NW,326,1.0,2.3,77,0.00,BKN,,0.00,WeatherDisplay:10.37,2013-01-26 09:21:00,
2013-01-26 04:26:00,33.4,27.0,30.05,NNW,347,0.0,1.1,77,0.00,BKN,,0.00,WeatherDisplay:10.37,2013-01-26 09:26:00,
2013-01-26 04:31:00,33.4,27.0,30.05,ESE,117,0.1,3.5,77,0.00,BKN,,0.00,WeatherDisplay:10.37,2013-01-26 09:31:00,
2013-01-26 04:36:00,33.3,26.9,30.06,SSE,167,0.0,1.1,77,0.00,BKN,,0.00,WeatherDisplay:10.37,2013-01-26 09:36:00,
2013-01-26 04:41:00,33.1,26.7,30.06,West,270,0.6,2.3,77,0.00,BKN,,0.00,WeatherDisplay:10.37,2013-01-26 09:41:00,
2013-01-26 04:46:00,33.0,26.3,30.06,SSW,212,0.4,1.0,76,0.00,BKN,,0.00,WeatherDisplay:10.37,2013-01-26 09:46:00,
2013-01-26 04:52:00,33.1,26.4,30.06,WSW,255,0.2,1.1,76,0.00,BKN,,0.00,WeatherDisplay:10.37,2013-01-26 09:52:00,
2013-01-26 04:57:00,32.9,26.2,30.07,NW,307,0.9,4.0,76,0.00,BKN,,0.00,WeatherDisplay:10.37,2013-01-26 09:57:00,
2013-01-26 05:03:00,33.1,26.4,30.07,NW,318,0.0,1.1,76,0.00,BKN,,0.00,WeatherDisplay:10.37,2013-01-26 10:03:00,
2013-01-26 05:08:00,32.9,26.2,30.07,SSW,207,0.9,2.0,76,0.00,BKN,,0.00,WeatherDisplay:10.37,2013-01-26 10:08:00,
2013-01-26 05:13:00,32.8,26.1,30.07,WSW,243,0.5,2.0,76,0.00,BKN,,0.00,WeatherDisplay:10.37,2013-01-26 10:13:00,
2013-01-26 05:18:00,32.6,25.9,30.07,WSW,243,0.0,0.0,76,0.00,BKN,,0.00,WeatherDisplay:10.37,2013-01-26 10:18:00,
2013-01-26 05:23:00,32.5,26.1,30.07,WSW,257,0.0,0.0,77,0.00,BKN,,0.00,WeatherDisplay:10.37,2013-01-26 10:23:00,
2013-01-26 05:29:00,32.3,25.9,30.08,SSW,205,0.4,1.1,77,0.00,BKN,,0.00,WeatherDisplay:10.37,2013-01-26 10:29:00,
2013-01-26 05:34:00,32.5,25.5,30.08,NNW,339,1.2,3.0,75,0.00,BKN,,0.00,WeatherDisplay:10.37,2013-01-26 10:34:00,
2013-01-26 05:39:00,32.6,25.6,30.08,East,101,0.4,3.5,75,0.00,BKN,,0.00,WeatherDisplay:10.37,2013-01-26 10:39:00,
2013-01-26 05:44:00,32.7,25.0,30.08,WNW,291,1.8,5.0,73,0.00,BKN,,0.00,WeatherDisplay:10.37,2013-01-26 10:44:00,
2013-01-26 05:49:00,32.9,24.9,30.08,NNE,33,0.8,3.5,72,0.00,BKN,,0.00,WeatherDisplay:10.37,2013-01-26 10:49:00,
2013-01-26 05:54:00,32.9,25.2,30.08,NW,326,0.6,2.3,73,0.00,BKN,,0.00,WeatherDisplay:10.37,2013-01-26 10:54:00,
2013-01-26 05:59:00,32.9,24.9,30.08,North,6,1.3,3.5,72,0.00,BKN,,0.00,WeatherDisplay:10.37,2013-01-26 10:59:00,
2013-01-26 06:04:00,32.9,24.9,30.09,SW,228,0.7,3.5,72,0.00,BKN,,0.00,WeatherDisplay:10.37,2013-01-26 11:04:00,
2013-01-26 06:09:00,32.9,25.2,30.09,East,89,0.1,1.1,73,0.00,BKN,,0.00,WeatherDisplay:10.37,2013-01-26 11:09:00,
2013-01-26 06:14:00,32.7,25.0,30.09,East,89,0.0,0.0,73,0.00,BKN,,0.00,WeatherDisplay:10.37,2013-01-26 11:14:00,
2013-01-26 06:20:00,32.5,24.8,30.10,SE,139,0.8,2.3,73,0.00,BKN,,0.00,WeatherDisplay:10.37,2013-01-26 11:20:00,
2013-01-26 06:25:00,32.3,25.6,30.10,West,274,0.0,0.0,76,0.00,BKN,,0.00,WeatherDisplay:10.37,2013-01-26 11:25:00,
2013-01-26 06:30:00,32.1,25.1,30.10,West,274,0.0,0.0,75,0.00,BKN,,0.00,WeatherDisplay:10.37,2013-01-26 11:30:00,
2013-01-26 06:36:00,31.9,24.9,30.10,NNE,18,0.2,1.1,75,0.00,BKN,,0.00,WeatherDisplay:10.37,2013-01-26 11:36:00,
2013-01-26 06:41:00,32.1,25.1,30.11,SW,224,0.8,2.3,75,0.00,BKN,,0.00,WeatherDisplay:10.37,2013-01-26 11:41:00,
2013-01-26 06:46:00,32.2,25.2,30.11,West,276,0.0,1.1,75,0.00,BKN,,0.00,WeatherDisplay:10.37,2013-01-26 11:46:00,
2013-01-26 06:52:00,32.2,24.8,30.11,NNE,22,0.1,1.1,74,0.00,BKN,,0.00,WeatherDisplay:10.37,2013-01-26 11:52:00,
2013-01-26 06:57:00,32.3,24.9,30.12,West,281,0.0,1.1,74,0.00,BKN,,0.00,WeatherDisplay:10.37,2013-01-26 11:57:00,
2013-01-26 07:02:00,32.3,24.9,30.12,NNW,332,0.0,1.1,74,0.00,BKN,,0.00,WeatherDisplay:10.37,2013-01-26 12:02:00,
2013-01-26 07:07:00,32.1,25.1,30.12,NNW,333,0.0,1.1,75,0.00,BKN,,0.00,WeatherDisplay:10.37,2013-01-26 12:07:00,
2013-01-26 07:12:00,32.0,25.3,30.13,NNW,347,0.0,1.1,76,0.00,BKN,,0.00,WeatherDisplay:10.37,2013-01-26 12:12:00,
2013-01-26 07:17:00,31.8,25.4,30.13,NNW,345,0.0,1.0,77,0.00,BKN,,0.00,WeatherDisplay:10.37,2013-01-26 12:17:00,
2013-01-26 07:22:00,31.7,25.3,30.13,NNW,344,0.0,0.0,77,0.00,BKN,,0.00,WeatherDisplay:10.37,2013-01-26 12:22:00,
2013-01-26 07:27:00,31.5,25.1,30.14,NNW,344,0.0,1.1,77,0.00,BKN,,0.00,WeatherDisplay:10.37,2013-01-26 12:27:00,
2013-01-26 07:32:00,31.4,25.0,30.14,NW,326,0.2,2.3,77,0.00,BKN,,0.00,WeatherDisplay:10.37,2013-01-26 12:32:00,
2013-01-26 07:37:00,31.3,24.6,30.14,NNE,15,0.7,2.3,76,0.00,BKN,,0.00,WeatherDisplay:10.37,2013-01-26 12:37:00,
2013-01-26 07:42:00,31.3,24.3,30.14,NNW,333,0.7,1.1,75,0.00,BKN,,0.00,WeatherDisplay:10.37,2013-01-26 12:42:00,
2013-01-26 07:47:00,31.2,24.2,30.15,NNW,340,0.3,1.1,75,0.00,BKN,,0.00,WeatherDisplay:10.37,2013-01-26 12:47:00,
2013-01-26 07:52:00,31.1,24.1,30.15,NNW,340,0.1,1.1,75,0.00,BKN,,0.00,WeatherDisplay:10.37,2013-01-26 12:52:00,
2013-01-26 07:57:00,31.0,24.0,30.15,NNW,340,0.0,1.1,75,0.00,BKN,,0.00,WeatherDisplay:10.37,2013-01-26 12:57:00,
2013-01-26 08:03:00,30.8,23.8,30.15,NNW,340,0.0,1.1,75,0.00,BKN,,0.00,WeatherDisplay:10.37,2013-01-26 13:03:00,
2013-01-26 08:08:00,30.7,23.7,30.16,West,277,0.1,1.1,75,0.00,SCT,,0.00,WeatherDisplay:10.37,2013-01-26 13:08:00,
2013-01-26 08:13:00,30.6,23.6,30.16,North,358,0.4,1.1,75,0.00,SCT,,0.00,WeatherDisplay:10.37,2013-01-26 13:13:00,
2013-01-26 08:18:00,30.5,23.5,30.16,SE,146,1.1,2.0,75,0.00,SCT,,0.00,WeatherDisplay:10.37,2013-01-26 13:18:00,
2013-01-26 08:23:00,30.5,23.2,30.17,South,174,0.4,1.0,74,0.00,SCT,,0.00,WeatherDisplay:10.37,2013-01-26 13:23:00,
2013-01-26 08:28:00,30.7,22.7,30.17,WNW,294,0.0,3.5,72,0.00,SCT,,0.00,WeatherDisplay:10.37,2013-01-26 13:28:00,
2013-01-26 08:33:00,30.9,22.9,30.17,North,4,0.2,3.0,72,0.00,SCT,,0.00,WeatherDisplay:10.37,2013-01-26 13:33:00,
2013-01-26 08:38:00,31.2,22.9,30.18,NNE,18,0.5,1.1,71,0.00,SCT,,0.00,WeatherDisplay:10.37,2013-01-26 13:38:00,
2013-01-26 08:43:00,31.2,22.9,30.18,NW,323,0.0,0.0,71,0.00,SCT,,0.00,WeatherDisplay:10.37,2013-01-26 13:43:00,
2013-01-26 08:48:00,31.4,22.4,30.18,West,280,0.3,2.3,69,0.00,SCT,,0.00,WeatherDisplay:10.37,2013-01-26 13:48:00,
2013-01-26 08:53:00,31.6,22.6,30.18,NW,305,0.0,0.0,69,0.00,SCT,,0.00,WeatherDisplay:10.37,2013-01-26 13:53:00,
2013-01-26 08:58:00,31.8,22.8,30.18,NW,305,0.0,0.0,69,0.00,SCT,,0.00,WeatherDisplay:10.37,2013-01-26 13:58:00,
2013-01-26 09:03:00,32.1,22.7,30.18,West,267,0.0,1.1,68,0.00,SCT,,0.00,WeatherDisplay:10.37,2013-01-26 14:03:00,
2013-01-26 09:08:00,32.4,23.0,30.18,SSW,211,0.0,0.0,68,0.00,SCT,,0.00,WeatherDisplay:10.37,2013-01-26 14:08:00,
2013-01-26 09:13:00,32.6,22.5,30.19,WSW,250,0.0,0.0,66,0.00,SCT,,0.00,WeatherDisplay:10.37,2013-01-26 14:13:00,
2013-01-26 09:18:00,32.8,22.7,30.19,West,268,1.0,0.0,66,0.00,SCT,,0.00,WeatherDisplay:10.37,2013-01-26 14:18:00,
2013-01-26 09:23:00,32.9,22.4,30.19,West,273,1.0,0.0,65,0.00,SCT,,0.00,WeatherDisplay:10.37,2013-01-26 14:23:00,
2013-01-26 09:28:00,33.1,22.6,30.19,West,271,1.0,0.0,65,0.00,SCT,,0.00,WeatherDisplay:10.37,2013-01-26 14:28:00,
2013-01-26 09:33:00,33.3,22.8,30.19,West,259,0.0,0.0,65,0.00,SCT,,0.00,WeatherDisplay:10.37,2013-01-26 14:33:00,
2013-01-26 09:38:00,33.5,22.9,30.19,West,259,1.0,0.0,65,0.00,SCT,,0.00,WeatherDisplay:10.37,2013-01-26 14:38:00,
2013-01-26 09:44:00,33.5,22.6,30.19,WSW,248,1.9,3.0,64,0.00,SCT,,0.00,WeatherDisplay:10.37,2013-01-26 14:44:00,
2013-01-26 09:49:00,33.7,22.8,30.20,NNW,338,1.2,2.3,64,0.00,SCT,,0.00,WeatherDisplay:10.37,2013-01-26 14:49:00,
2013-01-26 09:54:00,33.9,23.4,30.20,WSW,246,0.3,3.5,65,0.00,SCT,,0.00,WeatherDisplay:10.37,2013-01-26 14:54:00,
2013-01-26 09:59:00,34.1,23.2,30.20,West,264,0.8,1.1,64,0.00,SCT,,0.00,WeatherDisplay:10.37,2013-01-26 14:59:00,
2013-01-26 10:04:00,34.2,22.9,30.20,NW,313,2.3,4.6,63,0.00,SCT,,0.00,WeatherDisplay:10.37,2013-01-26 15:04:00,
2013-01-26 10:09:00,34.2,22.5,30.20,NNW,332,0.1,3.5,62,0.00,SCT,,0.00,WeatherDisplay:10.37,2013-01-26 15:09:00,
2013-01-26 10:14:00,34.3,22.2,30.21,SSW,195,1.5,6.9,61,0.00,SCT,,0.00,WeatherDisplay:10.37,2013-01-26 15:14:00,
2013-01-26 10:19:00,34.4,23.1,30.21,SW,225,1.3,5.0,63,0.00,SCT,,0.00,WeatherDisplay:10.37,2013-01-26 15:19:00,
2013-01-26 10:24:00,34.9,23.6,30.21,NW,310,0.2,2.3,63,0.00,SCT,,0.00,WeatherDisplay:10.37,2013-01-26 15:24:00,
2013-01-26 10:29:00,35.2,23.1,30.21,NNW,333,2.0,4.0,61,0.00,SCT,,0.00,WeatherDisplay:10.37,2013-01-26 15:29:00,
2013-01-26 10:34:00,35.5,23.4,30.21,NNW,340,0.3,3.5,61,0.00,SCT,,0.00,WeatherDisplay:10.37,2013-01-26 15:34:00,
2013-01-26 10:39:00,35.7,23.2,30.21,NNE,23,1.7,2.3,60,0.00,SCT,,0.00,WeatherDisplay:10.37,2013-01-26 15:39:00,
2013-01-26 10:44:00,35.7,23.2,30.21,NNW,342,1.1,2.3,60,0.00,SCT,,0.00,WeatherDisplay:10.37,2013-01-26 15:44:00,
2013-01-26 10:50:00,36.1,23.5,30.21,SW,229,3.6,5.8,60,0.00,SCT,,0.00,WeatherDisplay:10.37,2013-01-26 15:50:00,
2013-01-26 10:55:00,36.1,23.5,30.21,West,274,0.4,3.5,60,0.00,SCT,,0.00,WeatherDisplay:10.37,2013-01-26 15:55:00,
2013-01-26 11:00:00,36.0,23.4,30.21,WSW,252,0.9,8.1,60,0.00,SCT,,0.00,WeatherDisplay:10.37,2013-01-26 16:00:00,
2013-01-26 11:05:00,36.1,23.1,30.21,SW,221,2.7,4.0,59,0.00,SCT,,0.00,WeatherDisplay:10.37,2013-01-26 16:05:00,
2013-01-26 11:10:00,36.0,23.4,30.21,West,280,3.5,5.8,60,0.00,SCT,,0.00,WeatherDisplay:10.37,2013-01-26 16:10:00,
2013-01-26 11:15:00,36.2,23.2,30.21,North,352,1.8,6.9,59,0.00,SCT,,0.00,WeatherDisplay:10.37,2013-01-26 16:15:00,
2013-01-26 11:20:00,36.7,24.5,30.21,North,354,3.1,5.0,61,0.00,BKN,,0.00,WeatherDisplay:10.37,2013-01-26 16:20:00,
2013-01-26 11:25:00,36.8,23.8,30.21,WSW,241,3.4,5.0,59,0.00,BKN,,0.00,WeatherDisplay:10.37,2013-01-26 16:25:00,
2013-01-26 11:30:00,36.7,23.7,30.21,North,1,1.2,4.6,59,0.00,BKN,,0.00,WeatherDisplay:10.37,2013-01-26 16:30:00,
2013-01-26 11:35:00,37.1,24.1,30.20,West,266,3.1,8.0,59,0.00,BKN,,0.00,WeatherDisplay:10.37,2013-01-26 16:35:00,
2013-01-26 11:40:00,36.7,23.3,30.20,SSW,211,6.3,12.7,58,0.00,BKN,,0.00,WeatherDisplay:10.37,2013-01-26 16:40:00,
2013-01-26 11:45:00,36.9,24.3,30.20,West,262,1.6,3.5,60,0.01,RA,,0.01,WeatherDisplay:10.37,2013-01-26 16:45:00,
2013-01-26 11:50:00,37.1,23.7,30.20,WNW,293,1.5,3.5,58,0.01,RA,,0.01,WeatherDisplay:10.37,2013-01-26 16:50:00,
2013-01-26 11:55:00,37.0,24.4,30.20,SW,217,2.1,7.0,60,0.01,RA,,0.01,WeatherDisplay:10.37,2013-01-26 16:55:00,
2013-01-26 12:00:00,36.5,23.9,30.19,SW,214,4.2,7.0,60,0.01,RA,,0.01,WeatherDisplay:10.37,2013-01-26 17:00:00,
2013-01-26 12:05:00,36.2,24.0,30.19,WNW,285,1.6,3.5,61,0.01,RA,,0.01,WeatherDisplay:10.37,2013-01-26 17:05:00,
2013-01-26 12:11:00,36.3,24.1,30.19,North,349,1.1,3.5,61,0.02,RA,,0.02,WeatherDisplay:10.37,2013-01-26 17:11:00,
2013-01-26 12:16:00,36.3,23.7,30.18,NW,304,2.6,4.0,60,0.02,RA,,0.02,WeatherDisplay:10.37,2013-01-26 17:16:00,
2013-01-26 12:21:00,36.4,23.8,30.18,NNE,16,0.9,3.0,60,0.02,RA,,0.02,WeatherDisplay:10.37,2013-01-26 17:21:00,
2013-01-26 12:26:00,36.4,23.8,30.18,SSW,210,5.2,7.0,60,0.02,RA,,0.02,WeatherDisplay:10.37,2013-01-26 17:26:00,
2013-01-26 12:31:00,36.6,24.4,30.18,West,278,0.7,2.3,61,0.02,RA,,0.02,WeatherDisplay:10.37,2013-01-26 17:31:00,
2013-01-26 12:36:00,37.0,24.4,30.18,SW,226,5.7,8.1,60,0.02,RA,,0.02,WeatherDisplay:10.37,2013-01-26 17:36:00,
2013-01-26 12:41:00,37.6,25.0,30.18,West,263,0.9,4.6,60,0.02,SCT,,0.02,WeatherDisplay:10.37,2013-01-26 17:41:00,
2013-01-26 12:46:00,38.3,25.2,30.18,NNW,328,1.7,4.6,59,0.01,SCT,,0.02,WeatherDisplay:10.37,2013-01-26 17:46:00,
2013-01-26 12:51:00,38.3,24.8,30.18,West,281,2.6,6.0,58,0.01,SCT,,0.02,WeatherDisplay:10.37,2013-01-26 17:51:00,
2013-01-26 12:56:00,38.7,25.2,30.18,WNW,294,4.5,8.0,58,0.01,SCT,,0.02,WeatherDisplay:10.37,2013-01-26 17:56:00,
2013-01-26 13:01:00,39.2,25.6,30.18,West,262,1.5,5.8,58,0.01,SCT,,0.02,WeatherDisplay:10.37,2013-01-26 18:01:00,
2013-01-26 13:06:00,39.8,25.4,30.18,NW,312,1.0,5.8,56,0.01,SCT,,0.02,WeatherDisplay:10.37,2013-01-26 18:06:00,
2013-01-26 13:12:00,39.8,25.4,30.18,SSW,197,4.8,10.0,56,0.00,SCT,,0.02,WeatherDisplay:10.37,2013-01-26 18:12:00,
2013-01-26 13:17:00,39.6,25.2,30.18,SW,233,2.6,5.0,56,0.00,SCT,,0.02,WeatherDisplay:10.37,2013-01-26 18:17:00,
2013-01-26 13:22:00,39.7,25.3,30.18,NNE,27,3.7,8.1,56,0.01,RA,,0.03,WeatherDisplay:10.37,2013-01-26 18:22:00,
2013-01-26 13:27:00,39.6,25.2,30.18,WSW,257,2.5,6.0,56,0.02,RA,,0.04,WeatherDisplay:10.37,2013-01-26 18:27:00,
2013-01-26 13:32:00,39.6,24.7,30.18,NNW,328,4.7,9.2,55,0.03,RA,,0.05,WeatherDisplay:10.37,2013-01-26 18:32:00,
2013-01-26 13:37:00,39.7,25.3,30.18,WSW,253,3.7,8.0,56,0.03,RA,,0.05,WeatherDisplay:10.37,2013-01-26 18:37:00,
2013-01-26 13:42:00,39.6,24.7,30.17,South,172,3.2,5.8,55,0.04,RA,,0.06,WeatherDisplay:10.37,2013-01-26 18:42:00,
2013-01-26 13:47:00,39.7,25.7,30.18,SW,215,2.4,8.1,57,0.04,RA,,0.06,WeatherDisplay:10.37,2013-01-26 18:47:00,
2013-01-26 13:53:00,39.9,25.9,30.17,South,191,3.2,10.4,57,0.05,RA,,0.07,WeatherDisplay:10.37,2013-01-26 18:53:00,
2013-01-26 13:58:00,39.9,25.5,30.17,NNW,333,4.1,9.2,56,0.05,RA,,0.07,WeatherDisplay:10.37,2013-01-26 18:58:00,
2013-01-26 14:03:00,40.1,25.6,30.17,WNW,299,6.0,0.0,56,0.00,RA,,0.07,WeatherDisplay:10.37,2013-01-26 19:03:00,
2013-01-26 14:08:00,40.1,26.1,30.17,NNW,328,3.0,0.0,57,0.01,RA,,0.08,WeatherDisplay:10.37,2013-01-26 19:08:00,
2013-01-26 14:13:00,40.0,25.1,30.18,WNW,292,3.0,0.0,55,0.01,RA,,0.08,WeatherDisplay:10.37,2013-01-26 19:13:00,
2013-01-26 14:18:00,39.9,25.0,30.18,West,265,6.0,0.0,55,0.00,RA,,0.08,WeatherDisplay:10.37,2013-01-26 19:18:00,
2013-01-26 14:24:00,39.8,25.4,30.18,West,281,5.8,10.4,56,0.05,RA,,0.08,WeatherDisplay:10.37,2013-01-26 19:24:00,
2013-01-26 14:29:00,39.9,26.3,30.18,NNW,343,3.2,9.2,58,0.05,RA,,0.09,WeatherDisplay:10.37,2013-01-26 19:29:00,
2013-01-26 14:34:00,39.9,25.9,30.18,WNW,282,3.0,10.4,57,0.04,RA,,0.09,WeatherDisplay:10.37,2013-01-26 19:34:00,
2013-01-26 14:39:00,39.7,26.5,30.18,WNW,285,3.2,6.0,59,0.04,RA,,0.09,WeatherDisplay:10.37,2013-01-26 19:39:00,
2013-01-26 14:44:00,39.8,25.4,30.18,NW,307,3.5,7.0,56,0.03,RA,,0.09,WeatherDisplay:10.37,2013-01-26 19:44:00,
2013-01-26 14:50:00,39.8,25.4,30.18,WNW,301,3.5,6.0,56,0.03,RA,,0.09,WeatherDisplay:10.37,2013-01-26 19:50:00,
2013-01-26 14:55:00,39.8,24.9,30.18,SSW,205,4.1,11.0,55,0.02,RA,,0.09,WeatherDisplay:10.37,2013-01-26 19:55:00,
2013-01-26 15:00:00,39.7,25.3,30.18,NW,326,3.4,7.0,56,0.02,SCT,,0.09,WeatherDisplay:10.37,2013-01-26 20:00:00,
2013-01-26 15:05:00,39.5,25.1,30.18,SW,233,4.3,11.5,56,0.02,RA,,0.10,WeatherDisplay:10.37,2013-01-26 20:05:00,
2013-01-26 15:10:00,39.7,25.7,30.18,SW,229,2.1,6.0,57,0.02,RA,,0.10,WeatherDisplay:10.37,2013-01-26 20:10:00,
2013-01-26 15:15:00,39.9,25.9,30.19,WSW,242,1.7,4.6,57,0.02,RA,,0.10,WeatherDisplay:10.37,2013-01-26 20:15:00,
2013-01-26 15:20:00,39.9,25.9,30.19,WNW,297,2.5,6.0,57,0.02,RA,,0.10,WeatherDisplay:10.37,2013-01-26 20:20:00,
2013-01-26 15:25:00,39.5,25.5,30.19,NNW,335,2.9,7.0,57,0.02,RA,,0.10,WeatherDisplay:10.37,2013-01-26 20:25:00,
2013-01-26 15:30:00,39.5,25.9,30.19,WNW,289,2.6,4.0,58,0.01,RA,,0.10,WeatherDisplay:10.37,2013-01-26 20:30:00,
2013-01-26 15:36:00,39.3,25.3,30.20,South,170,3.9,8.1,57,0.01,SCT,,0.10,WeatherDisplay:10.37,2013-01-26 20:36:00,
2013-01-26 15:41:00,39.2,25.2,30.20,SW,217,4.8,8.0,57,0.01,SCT,,0.10,WeatherDisplay:10.37,2013-01-26 20:41:00,
2013-01-26 15:46:00,39.2,25.2,30.20,WSW,243,3.5,7.0,57,0.01,SCT,,0.10,WeatherDisplay:10.37,2013-01-26 20:46:00,
2013-01-26 15:51:00,39.3,26.2,30.21,North,356,1.6,3.5,59,0.01,SCT,,0.10,WeatherDisplay:10.37,2013-01-26 20:51:00,
2013-01-26 15:56:00,39.6,26.0,30.21,West,269,1.4,3.5,58,0.01,SCT,,0.10,WeatherDisplay:10.37,2013-01-26 20:56:00,
2013-01-26 16:01:00,39.9,25.5,30.21,WNW,303,0.8,3.5,56,0.01,SCT,,0.10,WeatherDisplay:10.37,2013-01-26 21:01:00,
2013-01-26 16:06:00,39.6,25.6,30.21,WSW,240,2.2,4.0,57,0.00,SCT,,0.10,WeatherDisplay:10.37,2013-01-26 21:06:00,
2013-01-26 16:11:00,39.5,25.5,30.21,NW,321,3.4,6.9,57,0.00,SCT,,0.10,WeatherDisplay:10.37,2013-01-26 21:11:00,
2013-01-26 16:16:00,39.2,25.2,30.22,NW,305,3.9,6.0,57,0.00,FEW,,0.10,WeatherDisplay:10.37,2013-01-26 21:16:00,
2013-01-26 16:21:00,38.9,25.4,30.22,West,277,3.3,6.0,58,0.00,FEW,,0.10,WeatherDisplay:10.37,2013-01-26 21:21:00,
2013-01-26 16:26:00,38.5,25.0,30.22,SSW,211,2.1,4.0,58,0.00,FEW,,0.10,WeatherDisplay:10.37,2013-01-26 21:26:00,
2013-01-26 16:31:00,38.4,25.3,30.22,NNW,335,1.5,4.0,59,0.00,FEW,,0.10,WeatherDisplay:10.37,2013-01-26 21:31:00,
2013-01-26 16:36:00,38.2,25.1,30.22,North,354,1.4,3.5,59,0.00,FEW,,0.10,WeatherDisplay:10.37,2013-01-26 21:36:00,
2013-01-26 16:41:00,38.1,25.0,30.22,NNW,343,1.5,4.0,59,0.00,FEW,,0.10,WeatherDisplay:10.37,2013-01-26 21:41:00,
2013-01-26 16:46:00,37.9,24.8,30.23,SW,229,1.7,4.6,59,0.00,FEW,,0.10,WeatherDisplay:10.37,2013-01-26 21:46:00,
2013-01-26 16:51:00,37.7,25.1,30.23,North,4,1.6,3.5,60,0.00,FEW,,0.10,WeatherDisplay:10.37,2013-01-26 21:51:00,
2013-01-26 16:56:00,37.7,25.1,30.23,West,266,1.0,3.5,60,0.00,FEW,,0.10,WeatherDisplay:10.37,2013-01-26 21:56:00,
2013-01-26 17:01:00,37.5,25.7,30.23,WNW,297,0.3,2.3,62,0.00,FEW,,0.10,WeatherDisplay:10.37,2013-01-26 22:01:00,
2013-01-26 17:06:00,37.1,24.5,30.23,WNW,297,1.2,3.5,60,0.00,FEW,,0.10,WeatherDisplay:10.37,2013-01-26 22:06:00,
2013-01-26 17:11:00,36.3,24.1,30.23,NW,314,4.0,6.9,61,0.00,FEW,,0.10,WeatherDisplay:10.37,2013-01-26 22:11:00,
2013-01-26 17:17:00,35.7,24.3,30.24,NW,322,1.7,3.0,63,0.00,FEW,,0.10,WeatherDisplay:10.37,2013-01-26 22:17:00,
2013-01-26 17:22:00,35.3,24.3,30.24,WSW,243,3.0,7.0,64,0.00,FEW,,0.10,WeatherDisplay:10.37,2013-01-26 22:22:00,
2013-01-26 17:27:00,35.0,24.0,30.24,ENE,61,0.4,2.0,64,0.00,FEW,,0.10,WeatherDisplay:10.37,2013-01-26 22:27:00,
2013-01-26 17:32:00,34.6,24.0,30.24,North,360,0.5,2.0,65,0.00,FEW,,0.10,WeatherDisplay:10.37,2013-01-26 22:32:00,
2013-01-26 17:37:00,34.3,24.1,30.25,SSW,211,0.1,1.1,66,0.00,FEW,,0.10,WeatherDisplay:10.37,2013-01-26 22:37:00,
2013-01-26 17:42:00,34.1,24.3,30.25,SSW,211,0.0,0.0,67,0.00,FEW,,0.10,WeatherDisplay:10.37,2013-01-26 22:42:00,
2013-01-26 17:47:00,33.8,24.0,30.25,SW,222,0.1,1.0,67,0.00,FEW,,0.10,WeatherDisplay:10.37,2013-01-26 22:47:00,
2013-01-26 17:52:00,33.5,24.1,30.26,SW,229,0.0,1.1,68,0.00,FEW,,0.10,WeatherDisplay:10.37,2013-01-26 22:52:00,
2013-01-26 17:57:00,33.3,23.9,30.26,SW,229,0.2,2.3,68,0.00,FEW,,0.10,WeatherDisplay:10.37,2013-01-26 22:57:00,
2013-01-26 18:02:00,33.1,24.0,30.26,West,278,0.0,1.1,69,0.00,FEW,,0.10,WeatherDisplay:10.37,2013-01-26 23:02:00,
2013-01-26 18:07:00,32.9,23.8,30.26,SW,233,1.1,2.0,69,0.00,FEW,,0.10,WeatherDisplay:10.37,2013-01-26 23:07:00,
2013-01-26 18:12:00,32.8,23.7,30.27,WNW,288,0.8,3.5,69,0.00,FEW,,0.10,WeatherDisplay:10.37,2013-01-26 23:12:00,
2013-01-26 18:17:00,32.7,23.6,30.27,NW,313,0.4,3.5,69,0.00,FEW,,0.10,WeatherDisplay:10.37,2013-01-26 23:17:00,
2013-01-26 18:22:00,32.6,23.6,30.27,NNW,328,2.2,3.5,69,0.00,FEW,,0.10,WeatherDisplay:10.37,2013-01-26 23:22:00,
2013-01-26 18:27:00,32.5,23.5,30.27,NW,316,1.5,2.3,69,0.00,FEW,,0.10,WeatherDisplay:10.37,2013-01-26 23:27:00,
2013-01-26 18:32:00,32.4,23.4,30.27,NNW,329,2.4,4.6,69,0.00,FEW,,0.10,WeatherDisplay:10.37,2013-01-26 23:32:00,
2013-01-26 18:37:00,32.2,23.5,30.27,NW,320,2.2,4.0,70,0.00,FEW,,0.10,WeatherDisplay:10.37,2013-01-26 23:37:00,
2013-01-26 18:42:00,32.2,23.5,30.28,WNW,298,1.3,3.5,70,0.00,FEW,,0.10,WeatherDisplay:10.37,2013-01-26 23:42:00,
2013-01-26 18:47:00,32.0,23.7,30.28,NNW,332,2.2,3.0,71,0.00,FEW,,0.10,WeatherDisplay:10.37,2013-01-26 23:47:00,
2013-01-26 18:52:00,31.9,23.2,30.28,WSW,253,2.9,6.9,70,0.00,FEW,,0.10,WeatherDisplay:10.37,2013-01-26 23:52:00,
2013-01-26 18:57:00,31.8,23.1,30.28,ENE,73,0.6,3.5,70,0.00,FEW,,0.10,WeatherDisplay:10.37,2013-01-26 23:57:00,
2013-01-26 19:02:00,31.7,23.4,30.29,West,279,1.8,5.0,71,0.00,FEW,,0.10,WeatherDisplay:10.37,2013-01-27 00:02:00,
2013-01-26 19:07:00,31.7,23.4,30.29,NNW,330,0.3,1.1,71,0.00,FEW,,0.10,WeatherDisplay:10.37,2013-01-27 00:07:00,
2013-01-26 19:12:00,31.5,23.5,30.29,ESE,103,0.0,0.0,72,0.00,FEW,,0.10,WeatherDisplay:10.37,2013-01-27 00:12:00,
2013-01-26 19:17:00,31.3,23.3,30.29,NE,53,2.0,2.3,72,0.00,FEW,,0.10,WeatherDisplay:10.37,2013-01-27 00:17:00,
2013-01-26 19:22:00,31.2,23.2,30.30,North,8,0.3,1.1,72,0.00,FEW,,0.10,WeatherDisplay:10.37,2013-01-27 00:22:00,
2013-01-26 19:27:00,31.0,23.0,30.30,NNE,20,0.0,1.1,72,0.00,FEW,,0.10,WeatherDisplay:10.37,2013-01-27 00:27:00,
2013-01-26 19:32:00,30.9,22.9,30.30,NNE,27,0.2,1.1,72,0.00,FEW,,0.10,WeatherDisplay:10.37,2013-01-27 00:32:00,
2013-01-26 19:37:00,30.8,22.5,30.30,NNW,340,1.7,2.3,71,0.00,FEW,,0.10,WeatherDisplay:10.37,2013-01-27 00:37:00,
2013-01-26 19:42:00,30.8,22.5,30.30,NNW,338,1.1,2.3,71,0.00,FEW,,0.10,WeatherDisplay:10.37,2013-01-27 00:42:00,
2013-01-26 19:47:00,30.7,22.4,30.30,NNE,19,1.9,3.5,71,0.00,FEW,,0.10,WeatherDisplay:10.37,2013-01-27 00:47:00,
2013-01-26 19:52:00,30.6,22.3,30.30,North,6,2.5,4.0,71,0.00,FEW,,0.10,WeatherDisplay:10.37,2013-01-27 00:52:00,
2013-01-26 19:57:00,30.5,21.9,30.30,North,356,1.9,4.6,70,0.00,FEW,,0.10,WeatherDisplay:10.37,2013-01-27 00:57:00,
2013-01-26 20:02:00,30.5,21.9,30.31,North,10,2.5,6.0,70,0.00,FEW,,0.10,WeatherDisplay:10.37,2013-01-27 01:02:00,
2013-01-26 20:07:00,30.6,22.0,30.32,North,5,2.4,6.0,70,0.00,FEW,,0.10,WeatherDisplay:10.37,2013-01-27 01:07:00,
2013-01-26 20:12:00,30.6,21.6,30.32,NNE,25,1.7,3.5,69,0.00,FEW,,0.10,WeatherDisplay:10.37,2013-01-27 01:12:00,
2013-01-26 20:17:00,30.5,21.5,30.32,NE,44,0.7,3.5,69,0.00,FEW,,0.10,WeatherDisplay:10.37,2013-01-27 01:17:00,
2013-01-26 20:22:00,30.4,21.4,30.32,SW,219,1.1,2.3,69,0.00,FEW,,0.10,WeatherDisplay:10.37,2013-01-27 01:22:00,
2013-01-26 20:27:00,30.3,21.7,30.32,NNW,347,0.5,1.1,70,0.00,FEW,,0.10,WeatherDisplay:10.37,2013-01-27 01:27:00,
2013-01-26 20:32:00,30.2,21.6,30.33,North,360,0.7,2.0,70,0.00,FEW,,0.10,WeatherDisplay:10.37,2013-01-27 01:32:00,
2013-01-26 20:38:00,30.0,21.4,30.33,North,1,1.0,2.3,70,0.00,FEW,,0.10,WeatherDisplay:10.37,2013-01-27 01:38:00,
2013-01-26 20:43:00,29.9,21.6,30.33,North,6,0.8,2.0,71,0.00,FEW,,0.10,WeatherDisplay:10.37,2013-01-27 01:43:00,
2013-01-26 20:48:00,29.7,21.4,30.33,North,359,1.2,2.0,71,0.00,FEW,,0.10,WeatherDisplay:10.37,2013-01-27 01:48:00,
2013-01-26 20:53:00,29.6,21.3,30.33,North,359,0.8,2.0,71,0.00,FEW,,0.10,WeatherDisplay:10.37,2013-01-27 01:53:00,
2013-01-26 20:58:00,29.4,21.2,30.34,North,352,0.9,1.1,71,0.00,FEW,,0.10,WeatherDisplay:10.37,2013-01-27 01:58:00,
2013-01-26 21:03:00,29.3,21.1,30.34,NE,35,0.1,1.0,71,0.00,SCT,,0.10,WeatherDisplay:10.37,2013-01-27 02:03:00,
2013-01-26 21:08:00,29.2,21.0,30.34,NNE,30,0.2,1.0,71,0.00,FEW,,0.10,WeatherDisplay:10.37,2013-01-27 02:08:00,
2013-01-26 21:13:00,29.1,20.9,30.34,West,261,0.1,1.1,71,0.00,FEW,,0.10,WeatherDisplay:10.37,2013-01-27 02:13:00,
2013-01-26 21:18:00,28.8,20.9,30.34,SE,137,0.1,1.1,72,0.00,SCT,,0.10,WeatherDisplay:10.37,2013-01-27 02:18:00,
2013-01-26 21:23:00,28.7,20.8,30.35,East,84,0.3,1.1,72,0.00,SCT,,0.10,WeatherDisplay:10.37,2013-01-27 02:23:00,
2013-01-26 21:28:00,28.8,20.9,30.35,SW,229,0.0,0.0,72,0.00,SCT,,0.10,WeatherDisplay:10.37,2013-01-27 02:28:00,
2013-01-26 21:33:00,28.7,20.8,30.36,NNE,21,0.7,1.1,72,0.00,SCT,,0.10,WeatherDisplay:10.37,2013-01-27 02:33:00,
2013-01-26 21:38:00,28.8,20.9,30.36,NNW,332,0.7,1.1,72,0.00,SCT,,0.10,WeatherDisplay:10.37,2013-01-27 02:38:00,
2013-01-26 21:43:00,28.7,20.8,30.36,NNW,343,1.0,1.1,72,0.00,SCT,,0.10,WeatherDisplay:10.37,2013-01-27 02:43:00,
2013-01-26 21:48:00,28.7,20.8,30.36,NNW,333,1.5,2.3,72,0.00,SCT,,0.10,WeatherDisplay:10.37,2013-01-27 02:48:00,
2013-01-26 21:53:00,28.8,20.6,30.37,NNW,335,1.6,2.3,71,0.00,SCT,,0.10,WeatherDisplay:10.37,2013-01-27 02:53:00,
2013-01-26 21:58:00,28.8,20.9,30.37,North,350,0.9,2.3,72,0.00,SCT,,0.10,WeatherDisplay:10.37,2013-01-27 02:58:00,
2013-01-26 22:03:00,28.8,20.9,30.37,NNW,345,0.8,1.1,72,0.00,SCT,,0.10,WeatherDisplay:10.37,2013-01-27 03:03:00,
2013-01-26 22:08:00,28.8,20.9,30.37,North,350,0.6,1.1,72,0.00,SCT,,0.10,WeatherDisplay:10.37,2013-01-27 03:08:00,
2013-01-26 22:13:00,28.8,20.6,30.38,North,350,0.2,1.1,71,0.00,SCT,,0.10,WeatherDisplay:10.37,2013-01-27 03:13:00,
2013-01-26 22:18:00,28.7,20.5,30.38,NNW,348,0.0,1.1,71,0.00,SCT,,0.10,WeatherDisplay:10.37,2013-01-27 03:18:00,
2013-01-26 22:23:00,28.6,20.4,30.38,NNE,18,0.0,0.0,71,0.00,FEW,,0.10,WeatherDisplay:10.37,2013-01-27 03:23:00,
2013-01-26 22:28:00,28.6,20.7,30.38,NNE,20,0.3,1.0,72,0.00,FEW,,0.10,WeatherDisplay:10.37,2013-01-27 03:28:00,
2013-01-26 22:33:00,28.4,20.8,30.38,NNE,20,0.1,1.0,73,0.00,FEW,,0.10,WeatherDisplay:10.37,2013-01-27 03:33:00,
2013-01-26 22:38:00,28.4,20.5,30.39,NNE,20,0.0,0.0,72,0.00,FEW,,0.10,WeatherDisplay:10.37,2013-01-27 03:38:00,
2013-01-26 22:43:00,28.4,20.5,30.39,North,3,0.0,0.0,72,0.00,FEW,,0.10,WeatherDisplay:10.37,2013-01-27 03:43:00,
2013-01-26 22:48:00,28.3,20.4,30.39,NNW,337,1.0,0.0,72,0.00,FEW,,0.10,WeatherDisplay:10.37,2013-01-27 03:48:00,
2013-01-26 22:53:00,28.3,20.4,30.40,NNW,342,2.0,0.0,72,0.00,FEW,,0.10,WeatherDisplay:10.37,2013-01-27 03:53:00,
2013-01-26 22:58:00,28.2,20.3,30.40,NNW,341,0.0,0.0,72,0.00,FEW,,0.10,WeatherDisplay:10.37,2013-01-27 03:58:00,
2013-01-26 23:03:00,28.1,20.2,30.40,NNW,337,0.0,0.0,72,0.00,FEW,,0.10,WeatherDisplay:10.37,2013-01-27 04:03:00,
2013-01-26 23:08:00,27.9,20.4,30.40,NNW,337,0.0,0.0,73,0.00,FEW,,0.10,WeatherDisplay:10.37,2013-01-27 04:08:00,
2013-01-26 23:13:00,27.7,20.1,30.40,NNW,335,0.0,0.0,73,0.00,FEW,,0.10,WeatherDisplay:10.37,2013-01-27 04:13:00,
2013-01-26 23:18:00,27.4,19.9,30.40,North,355,0.0,0.0,73,0.00,CLR,,0.10,WeatherDisplay:10.37,2013-01-27 04:18:00,
2013-01-26 23:23:00,27.4,20.2,30.41,ENE,78,0.0,0.0,74,0.00,CLR,,0.10,WeatherDisplay:10.37,2013-01-27 04:23:00,
2013-01-26 23:28:00,27.3,20.1,30.41,East,91,0.0,0.0,74,0.00,CLR,,0.10,WeatherDisplay:10.37,2013-01-27 04:28:00,
2013-01-26 23:33:00,27.2,20.0,30.41,East,90,0.0,0.0,74,0.00,CLR,,0.10,WeatherDisplay:10.37,2013-01-27 04:33:00,
2013-01-26 23:38:00,27.1,19.9,30.40,East,89,0.0,0.0,74,0.00,CLR,,0.10,WeatherDisplay:10.37,2013-01-27 04:38:00,
2013-01-26 23:43:00,27.1,19.9,30.40,East,87,0.0,0.0,74,0.00,CLR,,0.10,WeatherDisplay:10.37,2013-01-27 04:43:00,
2013-01-26 23:48:00,26.8,20.2,30.41,NNW,337,0.0,0.0,76,0.00,CLR,,0.10,WeatherDisplay:10.37,2013-01-27 04:48:00,
2013-01-26 23:54:00,26.8,19.6,30.41,NW,323,0.0,0.0,74,0.00,CLR,,0.10,WeatherDisplay:10.37,2013-01-27 04:54:00,